{"data":{"norad_id":62602,"intl_designator":"2025-008R","name":"STARLINK-32769","alt_names":[],"object_type":"PAYLOAD","status":"ACTIVE","operator":null,"country":"US","launch_date":"2025-01-13","launch_site_code":"AFETR","launch_vehicle":null,"mission":null,"orbit_class":"UNKNOWN","rcs_meters":null,"size_class":null,"mass_kg":null,"dimensions":null,"purposes":["comms"],"wikipedia_slug":null,"has_3d_model":false,"image_url":null,"decayed_at":null,"tle_current":{"epoch":"2026-05-25T04:18:38.795616Z","epoch_age_seconds":63060,"freshness":"FRESH","line1":"1 62602U 25008R   26145.17961569  .00002972  00000+0  11749-3 0  9997","line2":"2 62602  43.0053 205.8492 0003701 286.8525  73.1921 15.27579458 77325","mean_motion":15.27579458,"eccentricity":0.0003701,"inclination_deg":43.0053,"raan_deg":205.8492,"arg_perigee_deg":286.8525,"mean_anomaly_deg":73.1921,"bstar":0.00011749,"rev_number":7732,"period_min":94.266782160408,"perigee_km":480.51139340832,"apogee_km":485.59004455791,"semimajor_km":6861.1877189831,"source":"CELESTRAK","updated_at":"2026-05-25T13:38:19.736371Z"}}}